| time (UTC) | temp F | wind direction | speed MPH | gust MPH | rain 1hr in | rain 24hr in | rain mn in | humidity % | barometer mb |
| 20260507193028 | 50 | 0 | 0.0 | 5.0 | 0.00 | 0.02 | 0.02 | 70 | 1010.1 |
| 20260507192510 | 50 | 0 | 0.0 | 5.0 | 0.00 | 0.02 | 0.02 | 71 | 1010.2 |
| 20260507192010 | 50 | 0 | 0.0 | 5.0 | 0.00 | 0.02 | 0.02 | 71 | 1010.1 |
| 20260507191530 | 50 | 0 | 0.0 | 5.0 | 0.00 | 0.02 | 0.02 | 71 | 1010.0 |
| 20260507191008 | 51 | 0 | 0.0 | 7.0 | 0.00 | 0.02 | 0.02 | 70 | 1010.2 |
| 20260507190515 | 50 | 0 | 0.0 | 7.0 | 0.00 | 0.02 | 0.02 | 70 | 1010.1 |
| 20260507190028 | 50 | 152 | 0.0 | 9.0 | 0.00 | 0.02 | 0.02 | 71 | 1010.2 |
| 20260507185509 | 50 | 0 | 0.0 | 9.0 | 0.00 | 0.02 | 0.02 | 71 | 1010.2 |
| 20260507185011 | 50 | 0 | 0.0 | 7.0 | 0.00 | 0.02 | 0.02 | 71 | 1010.1 |
| 20260507184526 | 50 | 0 | 0.0 | 7.0 | 0.00 | 0.02 | 0.02 | 71 | 1010.1 |
| 20260507184007 | 50 | 0 | 0.0 | 7.0 | 0.00 | 0.02 | 0.02 | 71 | 1010.2 |
| 20260507183513 | 50 | 0 | 0.0 | 6.0 | 0.00 | 0.02 | 0.02 | 71 | 1010.1 |
| 20260507183027 | 51 | 162 | 0.0 | 10.0 | 0.00 | 0.02 | 0.02 | 70 | 1010.2 |
| 20260507182507 | 51 | 0 | 0.0 | 10.0 | 0.00 | 0.02 | 0.02 | 70 | 1010.1 |
| 20260507182011 | 51 | 163 | 1.0 | 9.0 | 0.00 | 0.02 | 0.02 | 70 | 1010.0 |
| 20260507181528 | 51 | 159 | 2.0 | 9.0 | 0.00 | 0.02 | 0.02 | 71 | 1010.0 |
| 20260507181014 | 51 | 0 | 0.0 | 10.0 | 0.00 | 0.02 | 0.02 | 72 | 1009.9 |
| 20260507180510 | 51 | 171 | 3.0 | 10.0 | 0.00 | 0.02 | 0.02 | 72 | 1009.9 |
| 20260507180029 | 51 | 0 | 0.0 | 10.0 | 0.00 | 0.02 | 0.02 | 73 | 1009.9 |
| 20260507175519 | 51 | 0 | 1.0 | 10.0 | 0.00 | 0.02 | 0.02 | 73 | 1010.0 |
| 20260507175009 | 51 | 0 | 1.0 | 7.0 | 0.00 | 0.02 | 0.02 | 72 | 1010.0 |
| 20260507174544 | 51 | 0 | 1.0 | 11.0 | 0.00 | 0.02 | 0.02 | 72 | 1010.0 |
| 20260507174017 | 51 | 0 | 1.0 | 12.0 | 0.00 | 0.02 | 0.02 | 71 | 1010.0 |
| 20260507173514 | 51 | 150 | 2.0 | 12.0 | 0.00 | 0.02 | 0.02 | 71 | 1010.0 |
| 20260507173029 | 51 | 155 | 2.0 | 9.0 | 0.00 | 0.02 | 0.02 | 73 | 1010.0 |
| 20260507172510 | 51 | 165 | 0.0 | 9.0 | 0.00 | 0.02 | 0.02 | 73 | 1009.9 |
| 20260507172019 | 51 | 0 | 1.0 | 9.0 | 0.00 | 0.02 | 0.02 | 72 | 1009.9 |
| 20260507171541 | 51 | 159 | 1.0 | 9.0 | 0.00 | 0.02 | 0.02 | 72 | 1009.9 |
| 20260507171011 | 51 | 0 | 1.0 | 9.0 | 0.00 | 0.02 | 0.02 | 72 | 1010.0 |
| 20260507170509 | 51 | 156 | 1.0 | 11.0 | 0.00 | 0.02 | 0.02 | 72 | 1009.9 |
| 20260507170028 | 51 | 0 | 3.0 | 11.0 | 0.00 | 0.02 | 0.02 | 72 | 1010.1 |
| 20260507165511 | 51 | 155 | 0.0 | 8.0 | 0.00 | 0.02 | 0.02 | 72 | 1010.1 |
| 20260507165010 | 51 | 0 | 1.0 | 8.0 | 0.00 | 0.02 | 0.02 | 71 | 1010.1 |
| 20260507164528 | 51 | 159 | 1.0 | 9.0 | 0.00 | 0.02 | 0.02 | 72 | 1010.1 |
| 20260507164011 | 51 | 219 | 1.0 | 9.0 | 0.00 | 0.02 | 0.02 | 72 | 1010.2 |
| 20260507163512 | 51 | 154 | 0.0 | 5.0 | 0.00 | 0.02 | 0.02 | 76 | 1010.2 |
| 20260507163027 | 51 | 168 | 0.0 | 9.0 | 0.00 | 0.02 | 0.02 | 76 | 1010.3 |
| 20260507162508 | 50 | 0 | 1.0 | 9.0 | 0.01 | 0.02 | 0.02 | 75 | 1010.2 |
| 20260507162010 | 50 | 0 | 1.0 | 10.0 | 0.01 | 0.02 | 0.02 | 76 | 1010.2 |
| 20260507161527 | 50 | 0 | 1.0 | 10.0 | 0.01 | 0.02 | 0.02 | 77 | 1010.3 |
| 20260507161012 | 50 | 0 | 1.0 | 8.0 | 0.01 | 0.02 | 0.02 | 78 | 1010.2 |
| 20260507160512 | 49 | 0 | 0.0 | 8.0 | 0.01 | 0.02 | 0.02 | 79 | 1010.3 |
| 20260507160031 | 49 | 0 | 0.0 | 8.0 | 0.01 | 0.02 | 0.02 | 80 | 1010.3 |
| 20260507155511 | 49 | 147 | 0.0 | 8.0 | 0.02 | 0.02 | 0.02 | 80 | 1010.3 |
| 20260507155010 | 48 | 0 | 0.0 | 8.0 | 0.02 | 0.02 | 0.02 | 80 | 1010.4 |
| 20260507154527 | 48 | 0 | 0.0 | 4.0 | 0.02 | 0.02 | 0.02 | 80 | 1010.4 |
| 20260507154011 | 48 | 171 | 0.0 | 4.0 | 0.02 | 0.02 | 0.02 | 80 | 1010.6 |
| 20260507153511 | 48 | 0 | 0.0 | 4.0 | 0.02 | 0.02 | 0.02 | 79 | 1010.6 |
| 20260507153029 | 49 | 0 | 0.0 | 4.0 | 0.01 | 0.01 | 0.01 | 79 | 1010.8 |
| 20260507152512 | 49 | 0 | 0.0 | 0.0 | 0.01 | 0.01 | 0.01 | 81 | 1010.8 |
| 20260507152008 | 49 | 0 | 0.0 | 0.0 | 0.01 | 0.01 | 0.01 | 81 | 1010.6 |
| 20260507151527 | 49 | 0 | 0.0 | 5.0 | 0.01 | 0.01 | 0.01 | 82 | 1010.7 |
| 20260507151007 | 49 | 0 | 0.0 | 5.0 | 0.01 | 0.01 | 0.01 | 81 | 1010.7 |
| 20260507150509 | 49 | 289 | 0.0 | 4.0 | 0.01 | 0.01 | 0.01 | 79 | 1010.8 |
| 20260507150036 | 49 | 0 | 0.0 | 6.0 | 0.01 | 0.01 | 0.01 | 78 | 1010.6 |
| 20260507145507 | 49 | 0 | 1.0 | 7.0 | 0.00 | 0.00 | 0.00 | 76 | 1010.6 |
| 20260507145016 | 49 | 0 | 0.0 | 7.0 | 0.00 | 0.00 | 0.00 | 75 | 1010.7 |
| 20260507144528 | 49 | 0 | 0.0 | 4.0 | 0.00 | 0.00 | 0.00 | 75 | 1010.7 |
| 20260507144010 | 50 | 0 | 0.0 | 10.0 | 0.00 | 0.00 | 0.00 | 74 | 1010.6 |
| 20260507143508 | 50 | 0 | 0.0 | 10.0 | 0.00 | 0.00 | 0.00 | 73 | 1010.7 |
| 20260507143028 | 50 | 144 | 2.0 | 10.0 | 0.00 | 0.00 | 0.00 | 72 | 1010.7 |
| 20260507142509 | 50 | 0 | 2.0 | 9.0 | 0.00 | 0.00 | 0.00 | 71 | 1010.7 |
| 20260507142011 | 50 | 124 | 2.0 | 9.0 | 0.00 | 0.00 | 0.00 | 71 | 1010.6 |
| 20260507141528 | 50 | 0 | 0.0 | 9.0 | 0.00 | 0.00 | 0.00 | 71 | 1010.8 |
| 20260507141015 | 50 | 126 | 1.0 | 10.0 | 0.00 | 0.00 | 0.00 | 70 | 1010.8 |
| 20260507140510 | 50 | 0 | 0.0 | 10.0 | 0.00 | 0.00 | 0.00 | 70 | 1010.8 |
| 20260507140037 | 50 | 143 | 4.0 | 10.0 | 0.00 | 0.00 | 0.00 | 70 | 1010.9 |
| 20260507135508 | 50 | 0 | 2.0 | 10.0 | 0.00 | 0.00 | 0.00 | 71 | 1010.8 |
| 20260507135014 | 50 | 0 | 2.0 | 8.0 | 0.00 | 0.00 | 0.00 | 72 | 1010.9 |
| 20260507134530 | 49 | 126 | 1.0 | 8.0 | 0.00 | 0.00 | 0.00 | 72 | 1011.0 |
| 20260507134007 | 49 | 0 | 0.0 | 6.0 | 0.00 | 0.00 | 0.00 | 72 | 1011.1 |
| 20260507133510 | 49 | 0 | 0.0 | 8.0 | 0.00 | 0.00 | 0.00 | 73 | 1011.1 |
| 20260507133033 | 49 | 0 | 0.0 | 8.0 | 0.00 | 0.00 | 0.00 | 72 | 1011.2 |
| 20260507132510 | 49 | 163 | 2.0 | 8.0 | 0.00 | 0.00 | 0.00 | 72 | 1011.2 |
| 20260507132009 | 49 | 186 | 0.0 | 8.0 | 0.00 | 0.00 | 0.00 | 71 | 1011.2 |
| 20260507131558 | 49 | 0 | 1.0 | 8.0 | 0.00 | 0.00 | 0.00 | 71 | 1011.3 |
| 20260507131011 | 49 | 0 | 0.0 | 8.0 | 0.00 | 0.00 | 0.00 | 71 | 1011.2 |
| 20260507130514 | 49 | 159 | 2.0 | 8.0 | 0.00 | 0.00 | 0.00 | 70 | 1011.3 |
| 20260507130029 | 49 | 163 | 0.0 | 8.0 | 0.00 | 0.00 | 0.00 | 70 | 1011.3 |
| 20260507125512 | 50 | 0 | 1.0 | 8.0 | 0.00 | 0.00 | 0.00 | 70 | 1011.3 |
| 20260507125011 | 50 | 170 | 0.0 | 8.0 | 0.00 | 0.00 | 0.00 | 70 | 1011.2 |
| 20260507124530 | 50 | 0 | 1.0 | 11.0 | 0.00 | 0.00 | 0.00 | 69 | 1011.3 |
| 20260507124010 | 50 | 0 | 4.0 | 11.0 | 0.00 | 0.00 | 0.00 | 69 | 1011.2 |
| 20260507123510 | 50 | 179 | 4.0 | 9.0 | 0.00 | 0.00 | 0.00 | 68 | 1011.1 |
| 20260507123030 | 51 | 0 | 1.0 | 10.0 | 0.00 | 0.00 | 0.00 | 67 | 1011.2 |
| 20260507122513 | 51 | 113 | 3.0 | 10.0 | 0.00 | 0.00 | 0.00 | 67 | 1011.1 |
| 20260507122013 | 51 | 0 | 2.0 | 10.0 | 0.00 | 0.00 | 0.00 | 67 | 1011.1 |
| 20260507121528 | 51 | 0 | 3.0 | 9.0 | 0.00 | 0.00 | 0.00 | 66 | 1011.1 |
| 20260507121011 | 51 | 0 | 2.0 | 12.0 | 0.00 | 0.00 | 0.00 | 66 | 1011.1 |
| 20260507120510 | 52 | 121 | 2.0 | 14.0 | 0.00 | 0.00 | 0.00 | 65 | 1011.1 |
| 20260507120033 | 52 | 166 | 3.0 | 14.0 | 0.00 | 0.00 | 0.00 | 65 | 1011.1 |
| 20260507115512 | 52 | 163 | 1.0 | 8.0 | 0.00 | 0.00 | 0.00 | 66 | 1011.0 |
| 20260507115013 | 51 | 0 | 0.0 | 11.0 | 0.00 | 0.00 | 0.00 | 66 | 1011.1 |
| 20260507114527 | 51 | 0 | 2.0 | 12.0 | 0.00 | 0.00 | 0.00 | 65 | 1011.0 |
| 20260507114013 | 51 | 146 | 2.0 | 12.0 | 0.00 | 0.00 | 0.00 | 65 | 1011.0 |
| 20260507113548 | 51 | 0 | 0.0 | 10.0 | 0.00 | 0.00 | 0.00 | 66 | 1011.1 |
| 20260507113058 | 51 | 0 | 2.0 | 10.0 | 0.00 | 0.00 | 0.00 | 65 | 1011.2 |
| 20260507112516 | 51 | 0 | 0.0 | 11.0 | 0.00 | 0.00 | 0.00 | 65 | 1011.1 |
| 20260507112011 | 51 | 0 | 0.0 | 11.0 | 0.00 | 0.00 | 0.00 | 65 | 1011.2 |
| 20260507111532 | 51 | 0 | 2.0 | 11.0 | 0.00 | 0.00 | 0.00 | 64 | 1011.2 |
| 20260507111007 | 51 | 0 | 1.0 | 8.0 | 0.00 | 0.00 | 0.00 | 65 | 1011.3 |
| 20260507110508 | 51 | 0 | 0.0 | 8.0 | 0.00 | 0.00 | 0.00 | 64 | 1011.2 |
| 20260507110031 | 51 | 0 | 2.0 | 11.0 | 0.00 | 0.00 | 0.00 | 64 | 1011.3 |
| 20260507105511 | 51 | 0 | 2.0 | 11.0 | 0.00 | 0.00 | 0.00 | 64 | 1011.1 |
| 20260507105009 | 51 | 125 | 1.0 | 10.0 | 0.00 | 0.00 | 0.00 | 64 | 1011.1 |
| 20260507104527 | 51 | 0 | 0.0 | 7.0 | 0.00 | 0.00 | 0.00 | 64 | 1011.2 |
| 20260507104011 | 51 | 0 | 0.0 | 9.0 | 0.00 | 0.00 | 0.00 | 65 | 1011.2 |
| 20260507103507 | 51 | 171 | 3.0 | 9.0 | 0.00 | 0.00 | 0.00 | 63 | 1011.2 |
| 20260507103029 | 51 | 0 | 0.0 | 11.0 | 0.00 | 0.00 | 0.00 | 64 | 1011.3 |
| 20260507102509 | 51 | 0 | 0.0 | 12.0 | 0.00 | 0.00 | 0.00 | 65 | 1011.3 |
| 20260507102007 | 51 | 0 | 1.0 | 12.0 | 0.00 | 0.00 | 0.00 | 64 | 1011.4 |
| 20260507101527 | 51 | 164 | 1.0 | 8.0 | 0.00 | 0.00 | 0.00 | 63 | 1011.4 |
| 20260507101012 | 51 | 142 | 0.0 | 8.0 | 0.00 | 0.00 | 0.00 | 65 | 1011.3 |
| 20260507100508 | 51 | 0 | 1.0 | 8.0 | 0.00 | 0.00 | 0.00 | 63 | 1011.4 |
| 20260507100038 | 52 | 0 | 1.0 | 8.0 | 0.00 | 0.00 | 0.00 | 64 | 1011.4 |
| 20260507095511 | 52 | 0 | 1.0 | 8.0 | 0.00 | 0.00 | 0.00 | 64 | 1011.3 |
| 20260507095009 | 51 | 0 | 0.0 | 8.0 | 0.00 | 0.00 | 0.00 | 62 | 1011.3 |
| 20260507094528 | 51 | 0 | 0.0 | 8.0 | 0.00 | 0.00 | 0.00 | 63 | 1011.3 |
| 20260507094008 | 51 | 167 | 0.0 | 2.0 | 0.00 | 0.00 | 0.00 | 63 | 1011.4 |
| 20260507093510 | 51 | 0 | 0.0 | 7.0 | 0.00 | 0.00 | 0.00 | 63 | 1011.5 |
| 20260507093034 | 51 | 0 | 0.0 | 9.0 | 0.00 | 0.00 | 0.00 | 64 | 1011.5 |
| 20260507092512 | 51 | 142 | 1.0 | 9.0 | 0.00 | 0.00 | 0.00 | 63 | 1011.5 |
| 20260507092008 | 51 | 0 | 0.0 | 11.0 | 0.00 | 0.00 | 0.00 | 64 | 1011.7 |
| 20260507091534 | 51 | 0 | 1.0 | 11.0 | 0.00 | 0.00 | 0.00 | 63 | 1011.6 |
| 20260507091010 | 50 | 0 | 0.0 | 9.0 | 0.00 | 0.00 | 0.00 | 65 | 1011.6 |
| 20260507090512 | 50 | 233 | 0.0 | 8.0 | 0.00 | 0.00 | 0.00 | 63 | 1011.5 |
| 20260507090028 | 50 | 0 | 0.0 | 11.0 | 0.00 | 0.00 | 0.00 | 64 | 1011.6 |
| 20260507085511 | 50 | 0 | 1.0 | 11.0 | 0.00 | 0.00 | 0.00 | 65 | 1011.6 |
| 20260507085008 | 50 | 0 | 2.0 | 11.0 | 0.00 | 0.00 | 0.00 | 65 | 1011.7 |
| 20260507084544 | 50 | 169 | 1.0 | 9.0 | 0.00 | 0.00 | 0.00 | 64 | 1011.7 |
| 20260507084015 | 50 | 163 | 0.0 | 9.0 | 0.00 | 0.00 | 0.00 | 66 | 1011.7 |
| 20260507083508 | 50 | 136 | 2.0 | 9.0 | 0.00 | 0.00 | 0.00 | 66 | 1011.7 |
| 20260507083030 | 49 | 135 | 1.0 | 7.0 | 0.00 | 0.00 | 0.00 | 67 | 1011.8 |
| 20260507082511 | 49 | 0 | 1.0 | 8.0 | 0.00 | 0.00 | 0.00 | 68 | 1011.8 |
| 20260507082012 | 49 | 0 | 1.0 | 10.0 | 0.00 | 0.00 | 0.00 | 68 | 1011.8 |
| 20260507081528 | 49 | 0 | 1.0 | 10.0 | 0.00 | 0.00 | 0.00 | 68 | 1011.7 |
| 20260507081017 | 49 | 0 | 2.0 | 10.0 | 0.00 | 0.00 | 0.00 | 69 | 1011.8 |
| 20260507080508 | 49 | 0 | 1.0 | 9.0 | 0.00 | 0.00 | 0.00 | 68 | 1011.7 |
| 20260507080030 | 48 | 168 | 1.0 | 9.0 | 0.00 | 0.00 | 0.00 | 69 | 1011.8 |
| 20260507075508 | 48 | 153 | 2.0 | 9.0 | 0.00 | 0.00 | 0.00 | 70 | 1011.7 |
| 20260507075013 | 47 | 0 | 0.0 | 9.0 | 0.00 | 0.00 | 0.00 | 72 | 1011.7 |
| 20260507074528 | 46 | 0 | 0.0 | 9.0 | 0.00 | 0.00 | 0.00 | 73 | 1011.7 |
| 20260507074008 | 46 | 0 | 1.0 | 10.0 | 0.00 | 0.00 | 0.00 | 72 | 1011.7 |
| 20260507073509 | 45 | 0 | 1.0 | 10.0 | 0.00 | 0.00 | 0.00 | 72 | 1011.6 |
| 20260507073030 | 45 | 166 | 2.0 | 9.0 | 0.00 | 0.00 | 0.00 | 72 | 1011.7 |
| 20260507072512 | 45 | 157 | 3.0 | 10.0 | 0.00 | 0.00 | 0.00 | 72 | 1011.7 |
| 20260507072012 | 45 | 0 | 2.0 | 10.0 | 0.00 | 0.00 | 0.00 | 73 | 1011.6 |
| 20260507071532 | 44 | 163 | 1.0 | 10.0 | 0.00 | 0.00 | 0.00 | 73 | 1011.7 |
| 20260507071010 | 44 | 164 | 1.0 | 10.0 | 0.00 | 0.00 | 0.00 | 74 | 1011.7 |
| 20260507070511 | 44 | 164 | 2.0 | 10.0 | 0.00 | 0.00 | 0.00 | 74 | 1011.7 |
| 20260507070030 | 44 | 0 | 1.0 | 8.0 | 0.00 | 0.00 | 0.00 | 74 | 1011.7 |
| 20260507065511 | 44 | 0 | 0.0 | 8.0 | 0.00 | 0.00 | 0.00 | 74 | 1011.7 |
| 20260507065011 | 43 | 0 | 1.0 | 8.0 | 0.00 | 0.00 | 0.00 | 74 | 1011.8 |
| 20260507064533 | 43 | 202 | 0.0 | 8.0 | 0.00 | 0.00 | 0.00 | 75 | 1011.9 |
| 20260507064010 | 43 | 158 | 0.0 | 5.0 | 0.00 | 0.00 | 0.00 | 75 | 1011.9 |
| 20260507063513 | 43 | 165 | 0.0 | 8.0 | 0.00 | 0.00 | 0.00 | 75 | 1011.9 |
| 20260507063028 | 43 | 0 | 0.0 | 8.0 | 0.00 | 0.00 | 0.00 | 75 | 1011.9 |
| 20260507062510 | 43 | 0 | 0.0 | 6.0 | 0.00 | 0.00 | 0.00 | 75 | 1011.9 |
| 20260507062010 | 43 | 0 | 0.0 | 4.0 | 0.00 | 0.00 | 0.00 | 76 | 1011.9 |
| 20260507061535 | 43 | 0 | 0.0 | 4.0 | 0.00 | 0.00 | 0.00 | 76 | 1011.7 |
| 20260507061013 | 43 | 175 | 0.0 | 7.0 | 0.00 | 0.00 | 0.00 | 76 | 1011.9 |
| 20260507060510 | 43 | 0 | 0.0 | 8.0 | 0.00 | 0.00 | 0.00 | 76 | 1011.7 |
| 20260507060036 | 42 | 0 | 0.0 | 8.0 | 0.00 | 0.00 | 0.00 | 76 | 1012.0 |
| 20260507055510 | 42 | 0 | 0.0 | 7.0 | 0.00 | 0.00 | 0.00 | 77 | 1012.0 |
| 20260507055016 | 42 | 0 | 0.0 | 7.0 | 0.00 | 0.00 | 0.00 | 77 | 1012.0 |
| 20260507054538 | 42 | 0 | 0.0 | 7.0 | 0.00 | 0.00 | 0.00 | 77 | 1012.0 |
| 20260507054010 | 41 | 0 | 0.0 | 7.0 | 0.00 | 0.00 | 0.00 | 78 | 1011.9 |
| 20260507053517 | 41 | 0 | 0.0 | 6.0 | 0.00 | 0.00 | 0.00 | 79 | 1011.9 |
| 20260507053031 | 41 | 0 | 0.0 | 6.0 | 0.00 | 0.00 | 0.00 | 79 | 1011.9 |
| 20260507052511 | 41 | 0 | 1.0 | 6.0 | 0.00 | 0.00 | 0.00 | 84 | 1012.1 |
| 20260507052011 | 40 | 0 | 0.0 | 5.0 | 0.00 | 0.00 | 0.00 | 80 | 1012.0 |
| 20260507051530 | 40 | 0 | 0.0 | 0.0 | 0.00 | 0.00 | 0.00 | 80 | 1012.1 |
| 20260507051016 | 40 | 0 | 0.0 | 0.0 | 0.00 | 0.00 | 0.00 | 81 | 1012.2 |
| 20260507050511 | 40 | 0 | 0.0 | 4.0 | 0.00 | 0.00 | 0.00 | 81 | 1012.2 |
| 20260507050049 | 39 | 0 | 0.0 | 4.0 | 0.00 | 0.00 | 0.00 | 82 | 1012.2 |
| 20260507045511 | 39 | 0 | 0.0 | 4.0 | 0.00 | 0.00 | 0.00 | 82 | 1012.3 |
| 20260507045011 | 38 | 0 | 0.0 | 0.0 | 0.00 | 0.00 | 0.00 | 82 | 1012.2 |
| 20260507044528 | 38 | 0 | 0.0 | 0.0 | 0.00 | 0.00 | 0.00 | 81 | 1012.2 |
| 20260507044010 | 38 | 0 | 0.0 | 0.0 | 0.00 | 0.00 | 0.00 | 81 | 1012.3 |
| 20260507043509 | 38 | 0 | 0.0 | 0.0 | 0.00 | 0.00 | 0.00 | 81 | 1012.3 |
| 20260507043028 | 38 | 0 | 0.0 | 0.0 | 0.00 | 0.00 | 0.00 | 81 | 1012.3 |
| 20260507042511 | 38 | 0 | 0.0 | 0.0 | 0.00 | 0.00 | 0.00 | 81 | 1012.3 |
| 20260507042010 | 38 | 0 | 0.0 | 3.0 | 0.00 | 0.00 | 0.00 | 81 | 1012.3 |
| 20260507041527 | 38 | 0 | 0.0 | 3.0 | 0.00 | 0.00 | 0.00 | 81 | 1012.3 |
| 20260507041010 | 38 | 0 | 0.0 | 0.0 | 0.00 | 0.00 | 0.00 | 81 | 1012.4 |
| 20260507040510 | 38 | 0 | 0.0 | 0.0 | 0.00 | 0.00 | 0.00 | 80 | 1012.3 |
| 20260507040028 | 39 | 0 | 0.0 | 0.0 | 0.00 | 0.00 | 0.00 | 80 | 1012.2 |
| 20260507035508 | 39 | 0 | 0.0 | 0.0 | 0.00 | 0.00 | 0.00 | 80 | 1012.3 |
| 20260507035008 | 39 | 0 | 0.0 | 0.0 | 0.00 | 0.00 | 0.00 | 80 | 1012.3 |
| 20260507034535 | 39 | 0 | 0.0 | 0.0 | 0.00 | 0.00 | 0.00 | 80 | 1012.5 |
| 20260507034018 | 39 | 0 | 0.0 | 3.0 | 0.00 | 0.00 | 0.00 | 80 | 1012.4 |
| 20260507033511 | 39 | 0 | 0.0 | 4.0 | 0.00 | 0.00 | 0.00 | 80 | 1012.5 |
| 20260507033038 | 39 | 0 | 0.0 | 4.0 | 0.00 | 0.00 | 0.00 | 80 | 1012.6 |
| 20260507032507 | 39 | 0 | 0.0 | 0.0 | 0.00 | 0.00 | 0.00 | 79 | 1012.6 |
| 20260507032010 | 39 | 0 | 0.0 | 0.0 | 0.00 | 0.00 | 0.00 | 79 | 1012.6 |
| 20260507031533 | 40 | 0 | 0.0 | 0.0 | 0.00 | 0.00 | 0.00 | 78 | 1012.7 |
| 20260507031011 | 40 | 0 | 0.0 | 0.0 | 0.00 | 0.00 | 0.00 | 78 | 1012.8 |
| 20260507030511 | 40 | 0 | 0.0 | 0.0 | 0.00 | 0.00 | 0.00 | 78 | 1012.7 |
| 20260507030035 | 40 | 0 | 0.0 | 0.0 | 0.00 | 0.00 | 0.00 | 78 | 1012.8 |
| 20260507025510 | 40 | 0 | 0.0 | 0.0 | 0.00 | 0.00 | 0.00 | 78 | 1012.8 |
| 20260507025017 | 40 | 0 | 0.0 | 4.0 | 0.00 | 0.00 | 0.00 | 78 | 1012.8 |
| 20260507024535 | 40 | 0 | 0.0 | 6.0 | 0.00 | 0.00 | 0.00 | 78 | 1012.7 |
| 20260507024012 | 40 | 0 | 0.0 | 6.0 | 0.00 | 0.00 | 0.00 | 79 | 1012.8 |
| 20260507023509 | 39 | 0 | 0.0 | 6.0 | 0.00 | 0.00 | 0.00 | 80 | 1012.9 |
| 20260507023026 | 39 | 0 | 0.0 | 0.0 | 0.00 | 0.00 | 0.00 | 80 | 1012.9 |
| 20260507022510 | 38 | 0 | 0.0 | 0.0 | 0.00 | 0.00 | 0.00 | 80 | 1012.9 |
| 20260507022010 | 38 | 0 | 0.0 | 0.0 | 0.00 | 0.00 | 0.00 | 78 | 1013.0 |
| 20260507021544 | 38 | 0 | 0.0 | 0.0 | 0.00 | 0.00 | 0.00 | 77 | 1013.0 |
| 20260507021011 | 38 | 0 | 0.0 | 0.0 | 0.00 | 0.00 | 0.00 | 77 | 1013.0 |
| 20260507020509 | 39 | 0 | 0.0 | 0.0 | 0.00 | 0.00 | 0.00 | 76 | 1012.9 |
| 20260507020028 | 39 | 0 | 0.0 | 0.0 | 0.00 | 0.00 | 0.00 | 76 | 1013.0 |
| 20260507015507 | 39 | 0 | 0.0 | 0.0 | 0.00 | 0.00 | 0.00 | 76 | 1013.0 |
| 20260507015008 | 40 | 0 | 0.0 | 0.0 | 0.00 | 0.00 | 0.00 | 76 | 1012.9 |
| 20260507014527 | 40 | 0 | 0.0 | 0.0 | 0.00 | 0.00 | 0.00 | 76 | 1012.8 |
| 20260507014013 | 40 | 0 | 0.0 | 0.0 | 0.00 | 0.00 | 0.00 | 76 | 1012.7 |
| 20260507013511 | 40 | 0 | 0.0 | 0.0 | 0.00 | 0.00 | 0.00 | 75 | 1012.8 |
| 20260507013033 | 41 | 0 | 0.0 | 0.0 | 0.00 | 0.00 | 0.00 | 75 | 1012.9 |
| 20260507012509 | 41 | 0 | 0.0 | 0.0 | 0.00 | 0.00 | 0.00 | 74 | 1013.0 |
| 20260507012010 | 41 | 0 | 0.0 | 0.0 | 0.00 | 0.00 | 0.00 | 74 | 1012.8 |
| 20260507011532 | 41 | 0 | 0.0 | 0.0 | 0.00 | 0.00 | 0.00 | 74 | 1012.9 |
| 20260507011010 | 42 | 0 | 0.0 | 0.0 | 0.00 | 0.00 | 0.00 | 74 | 1013.1 |
| 20260507010513 | 42 | 0 | 0.0 | 0.0 | 0.00 | 0.00 | 0.00 | 73 | 1013.1 |
| 20260507010039 | 42 | 0 | 0.0 | 0.0 | 0.00 | 0.00 | 0.00 | 73 | 1013.1 |
| 20260507005511 | 42 | 0 | 0.0 | 3.0 | 0.00 | 0.00 | 0.00 | 73 | 1013.1 |
| 20260507005017 | 42 | 0 | 0.0 | 7.0 | 0.00 | 0.00 | 0.00 | 73 | 1013.1 |
| 20260507004528 | 42 | 0 | 0.0 | 7.0 | 0.00 | 0.00 | 0.00 | 73 | 1013.1 |
| 20260507004011 | 42 | 0 | 0.0 | 6.0 | 0.00 | 0.00 | 0.00 | 73 | 1013.2 |
| 20260507003511 | 42 | 0 | 0.0 | 7.0 | 0.00 | 0.00 | 0.00 | 73 | 1013.1 |
| 20260507003029 | 42 | 0 | 0.0 | 7.0 | 0.00 | 0.00 | 0.00 | 73 | 1013.1 |
| 20260507002512 | 42 | 144 | 0.0 | 6.0 | 0.00 | 0.00 | 0.00 | 74 | 1013.3 |
| 20260507002012 | 42 | 0 | 0.0 | 6.0 | 0.00 | 0.00 | 0.00 | 73 | 1013.3 |
| 20260507001530 | 42 | 0 | 0.0 | 6.0 | 0.00 | 0.00 | 0.00 | 73 | 1013.4 |
| 20260507001010 | 42 | 0 | 0.0 | 6.0 | 0.00 | 0.00 | 0.00 | 73 | 1013.3 |
| 20260507000517 | 42 | 0 | 0.0 | 5.0 | 0.00 | 0.00 | 0.00 | 73 | 1013.3 |
| 20260507000033 | 42 | 0 | 0.0 | 4.0 | 0.00 | 0.00 | 0.00 | 73 | 1013.5 |
| 20260506235510 | 42 | 0 | 0.0 | 6.0 | 0.00 | 0.00 | 0.00 | 73 | 1013.5 |
| 20260506235016 | 42 | 0 | 0.0 | 6.0 | 0.00 | 0.00 | 0.00 | 72 | 1013.5 |
| 20260506234530 | 42 | 0 | 0.0 | 5.0 | 0.00 | 0.00 | 0.00 | 72 | 1013.5 |
| 20260506234009 | 42 | 0 | 0.0 | 5.0 | 0.00 | 0.00 | 0.00 | 72 | 1013.6 |
| 20260506233511 | 42 | 0 | 0.0 | 3.0 | 0.00 | 0.00 | 0.00 | 72 | 1013.5 |
| 20260506233028 | 42 | 0 | 0.0 | 0.0 | 0.00 | 0.00 | 0.00 | 72 | 1013.5 |
| 20260506232511 | 42 | 0 | 0.0 | 0.0 | 0.00 | 0.00 | 0.00 | 71 | 1013.7 |
| 20260506232010 | 42 | 0 | 0.0 | 6.0 | 0.00 | 0.00 | 0.00 | 71 | 1013.7 |
| 20260506231530 | 42 | 0 | 0.0 | 6.0 | 0.00 | 0.00 | 0.00 | 71 | 1013.6 |
| 20260506231010 | 42 | 0 | 0.0 | 6.0 | 0.00 | 0.00 | 0.00 | 71 | 1013.6 |
| 20260506230510 | 42 | 0 | 0.0 | 5.0 | 0.00 | 0.00 | 0.00 | 71 | 1013.7 |
| 20260506230029 | 42 | 0 | 0.0 | 3.0 | 0.00 | 0.00 | 0.00 | 71 | 1013.7 |
| 20260506225515 | 42 | 0 | 0.0 | 3.0 | 0.00 | 0.00 | 0.00 | 71 | 1013.7 |
| 20260506225011 | 42 | 0 | 0.0 | 3.0 | 0.00 | 0.00 | 0.00 | 70 | 1013.7 |
| 20260506224530 | 42 | 0 | 0.0 | 5.0 | 0.00 | 0.00 | 0.00 | 69 | 1013.7 |
| 20260506224010 | 42 | 0 | 0.0 | 5.0 | 0.00 | 0.00 | 0.00 | 69 | 1013.8 |
| 20260506223515 | 42 | 0 | 0.0 | 5.0 | 0.00 | 0.00 | 0.00 | 68 | 1013.8 |
| 20260506223030 | 42 | 0 | 0.0 | 0.0 | 0.00 | 0.00 | 0.00 | 68 | 1013.8 |
| 20260506222508 | 42 | 0 | 0.0 | 2.0 | 0.00 | 0.00 | 0.00 | 68 | 1013.8 |
| 20260506222016 | 42 | 0 | 0.0 | 2.0 | 0.00 | 0.00 | 0.00 | 68 | 1013.8 |
| 20260506221527 | 42 | 0 | 0.0 | 0.0 | 0.00 | 0.00 | 0.00 | 68 | 1013.8 |
| 20260506221016 | 42 | 0 | 0.0 | 0.0 | 0.00 | 0.00 | 0.00 | 69 | 1013.9 |
| 20260506220509 | 42 | 0 | 0.0 | 0.0 | 0.00 | 0.00 | 0.00 | 70 | 1013.9 |
| 20260506220034 | 42 | 0 | 0.0 | 0.0 | 0.00 | 0.00 | 0.00 | 69 | 1013.9 |
| 20260506215511 | 42 | 0 | 0.0 | 0.0 | 0.00 | 0.00 | 0.00 | 68 | 1013.8 |
| 20260506215012 | 42 | 0 | 0.0 | 0.0 | 0.00 | 0.00 | 0.00 | 69 | 1013.9 |
| 20260506214531 | 42 | 0 | 0.0 | 0.0 | 0.00 | 0.00 | 0.00 | 69 | 1013.8 |
| 20260506214011 | 42 | 0 | 0.0 | 0.0 | 0.00 | 0.00 | 0.00 | 69 | 1013.8 |
| 20260506213511 | 42 | 0 | 0.0 | 0.0 | 0.00 | 0.00 | 0.00 | 69 | 1013.9 |
| 20260506213031 | 42 | 0 | 0.0 | 3.0 | 0.00 | 0.00 | 0.00 | 69 | 1013.9 |
| 20260506212511 | 42 | 0 | 0.0 | 3.0 | 0.00 | 0.00 | 0.00 | 69 | 1014.0 |
| 20260506212013 | 42 | 0 | 0.0 | 0.0 | 0.00 | 0.00 | 0.00 | 70 | 1013.9 |
| 20260506211530 | 42 | 0 | 0.0 | 0.0 | 0.00 | 0.00 | 0.00 | 70 | 1014.0 |
| 20260506211012 | 42 | 0 | 0.0 | 3.0 | 0.00 | 0.00 | 0.00 | 70 | 1014.0 |
| 20260506210512 | 42 | 0 | 0.0 | 3.0 | 0.00 | 0.00 | 0.00 | 69 | 1013.9 |
| 20260506210034 | 43 | 0 | 0.0 | 0.0 | 0.00 | 0.00 | 0.00 | 69 | 1014.0 |
| 20260506205512 | 43 | 0 | 0.0 | 0.0 | 0.00 | 0.00 | 0.00 | 69 | 1014.0 |
| 20260506205011 | 43 | 0 | 0.0 | 0.0 | 0.00 | 0.00 | 0.00 | 68 | 1013.9 |
| 20260506204546 | 43 | 0 | 0.0 | 0.0 | 0.00 | 0.00 | 0.00 | 68 | 1014.0 |
| 20260506204016 | 43 | 0 | 0.0 | 0.0 | 0.00 | 0.00 | 0.00 | 67 | 1014.0 |
| 20260506203518 | 43 | 0 | 0.0 | 0.0 | 0.00 | 0.00 | 0.00 | 67 | 1013.9 |
| 20260506203031 | 43 | 0 | 0.0 | 0.0 | 0.00 | 0.00 | 0.00 | 67 | 1014.0 |
| 20260506202511 | 43 | 0 | 0.0 | 0.0 | 0.00 | 0.00 | 0.00 | 67 | 1013.9 |
| 20260506202012 | 44 | 0 | 0.0 | 0.0 | 0.00 | 0.00 | 0.00 | 66 | 1014.0 |
| 20260506201534 | 44 | 0 | 0.0 | 3.0 | 0.00 | 0.00 | 0.00 | 66 | 1014.0 |
| 20260506201011 | 44 | 0 | 0.0 | 7.0 | 0.00 | 0.00 | 0.00 | 66 | 1013.9 |
| 20260506200511 | 44 | 0 | 0.0 | 7.0 | 0.00 | 0.00 | 0.00 | 66 | 1013.9 |
| 20260506200033 | 44 | 0 | 0.0 | 8.0 | 0.00 | 0.00 | 0.00 | 67 | 1013.8 |
| 20260506195511 | 44 | 0 | 0.0 | 8.0 | 0.00 | 0.00 | 0.00 | 66 | 1013.8 |
| 20260506195010 | 44 | 135 | 0.0 | 10.0 | 0.00 | 0.00 | 0.00 | 67 | 1013.7 |
| 20260506194530 | 44 | 0 | 0.0 | 10.0 | 0.00 | 0.00 | 0.00 | 67 | 1013.7 |
| 20260506194012 | 44 | 0 | 1.0 | 7.0 | 0.00 | 0.00 | 0.00 | 67 | 1013.7 |
| 20260506193509 | 44 | 0 | 0.0 | 7.0 | 0.00 | 0.00 | 0.00 | 67 | 1013.7 |